Powrót do katalogu

DELTA 1 DEB

AktywnyUNKNOWN
NORAD 14839·DEBRIS·🇺🇸 United States

Wystrzelony Jul 14, 1977 z Cape Canaveral Space Force Station

Loading…

Następne Przeloty (najbliższe 24 godziny)

TLE

ŚwieżeSource: Space-Track

Epoka: Sep 14, 2026, 14:12 UTC

1 14839U 77065FU  26257.59204486  .00001174  00000-0  38177-2 0  9991
2 14839  28.9899  35.2473 0977519 159.2574 298.2998 11.92976680170483

Śledź DELTA 1 DEB w czasie rzeczywistym z AllMySat

Download on the App Store